COSMOS 1294

导读 | 豆包AI

COSMOS 1294是苏联(CIS)"宇宙"系列卫星成员,于1981年8月6日8时发射入轨。冷战背景下,苏联军事卫星多以"宇宙"统一命名,借此隐藏任务属性。作为系列中的一员,它延续了该系列保密化设计,服务于苏联航天侦察、技术验证等战略需求,是苏联航天体系冷战军备竞赛中空间部署的重要组成部分,见证了当时航天技术的发展与大国太空博弈。

基本信息
目录编号:
12643
目录名称:
COSMOS 1294
国际标识:
1981-074H
轨道中心:
EARTH
卫星名称:
COSMOS 1294
卫星全名:
--
卫星状态:
在轨 (已飞行16338 天)
发射日期:
1981-08-06 UTC
国别 :
俄罗斯(独联体) (CIS)
星等 :
--
轨道信息
数据来源 国际轨道数据
星历时间: 2026-04-30T13:42:40+0800
9小时前
查看轨道信息
半长轴: 7806.158km
偏心率: 0.0046315
轨道倾角: 74.035°
近地点辐角 327.932°
升交点赤经 41.316°
平近点角 105.068°
近地点: 1391.866km
远地点: 1464.176km
周期: 114.397分钟
每日圈数: 12.587711
详细信息
使用方式:
暂无
2D轨道图
3D轨道图
轨道高度分析图
轨道倾角分析图
轨道综合分析图
查看轨道综合分析图